KE5KZS Weather Reports


Display with metric or nautical units.
time (UTC)temp
F
wind
direction
speed
MPH
gust
MPH
rain 1hr
in
rain 24hr
in
rain mn
in
humidity
%
barometer
mb
20260902130017 81 113 1.0 2.0 0.00 0.00 0.00 76 1014.4
20260902125017 80 113 1.0 2.0 0.00 0.00 0.00 77 1014.3
20260902124017 79 0.0 2.0 0.00 0.00 0.00 77 1014.1
20260902123017 79 0.0 2.0 0.00 0.00 0.00 77 1014.0
20260902122017 79 0.0 2.0 0.00 0.00 0.00 77 1013.9
20260902121017 79 113 1.0 2.0 0.00 0.00 0.00 76 1013.8
20260902120017 79 0.0 1.0 0.00 0.00 0.00 76 1013.8
20260902115017 79 0.0 1.0 0.00 0.00 0.00 76 1013.8
20260902114017 79 113 1.0 3.0 0.00 0.00 0.00 75 1013.8
20260902113017 79 0.0 1.0 0.00 0.00 0.00 75 1013.9
20260902112017 79 113 1.0 2.0 0.00 0.00 0.00 75 1014.0
20260902111017 79 113 2.0 3.0 0.00 0.00 0.00 75 1013.9
20260902110017 79 158 1.0 4.0 0.00 0.00 0.00 75 1013.9
20260902105017 79 158 1.0 4.0 0.00 0.00 0.00 75 1013.8
20260902104017 79 0.0 2.0 0.00 0.00 0.00 75 1013.8
20260902103017 80 0.0 0.0 0.00 0.00 0.00 74 1013.8
20260902102017 80 0.0 0.0 0.00 0.00 0.00 74 1013.9
20260902101037 80 0.0 0.0 0.00 0.00 0.00 72 1013.9
20260902100017 81 0.0 0.0 0.00 0.00 0.00 72 1013.8
20260902095017 81 0.0 0.0 0.00 0.00 0.00 71 1013.7
20260902094017 82 0.0 1.0 0.00 0.00 0.00 70 1013.7
20260902093017 82 158 1.0 2.0 0.00 0.00 0.00 70 1013.8
20260902092017 82 0.0 2.0 0.00 0.00 0.00 70 1013.9
20260902091017 82 158 1.0 4.0 0.00 0.00 0.00 69 1013.9
20260902090017 83 158 1.0 5.0 0.00 0.00 0.00 69 1013.8
20260902085037 83 158 1.0 4.0 0.00 0.00 0.00 69 1013.8
20260902084017 83 158 1.0 4.0 0.00 0.00 0.00 68 1013.8
20260902083017 83 158 1.0 5.0 0.00 0.00 0.00 68 1013.9
20260902082017 84 158 2.0 5.0 0.00 0.00 0.00 68 1013.9
20260902081017 84 158 2.0 5.0 0.00 0.00 0.00 67 1013.9
20260902080037 84 158 2.0 5.0 0.00 0.00 0.00 67 1013.9
20260902075017 85 158 1.0 3.0 0.00 0.00 0.00 67 1014.0
20260902074017 85 158 2.0 5.0 0.00 0.00 0.00 66 1014.1
20260902073057 85 135 2.0 4.0 0.00 0.00 0.00 65 1014.1
20260902072017 86 135 2.0 5.0 0.00 0.00 0.00 65 1014.1
20260902071037 86 158 2.0 5.0 0.00 0.00 0.00 64 1014.0
20260902070017 86 158 3.0 7.0 0.00 0.00 0.00 64 1014.1
20260902065017 86 203 2.0 6.0 0.00 0.00 0.00 64 1014.2
20260902064017 86 158 3.0 5.0 0.00 0.00 0.00 64 1013.9
20260902063017 86 135 2.0 3.0 0.00 0.00 0.00 63 1013.9
20260902062017 87 135 2.0 4.0 0.00 0.00 0.00 63 1013.8
20260902061037 87 135 2.0 6.0 0.00 0.00 0.00 62 1013.8
20260902060017 87 135 3.0 6.0 0.00 0.00 0.00 62 1013.6
20260902055017 87 135 3.0 6.0 0.00 0.00 0.00 61 1013.5
20260902054037 88 180 3.0 8.0 0.00 0.00 0.00 60 1013.4
20260902053037 88 135 4.0 7.0 0.00 0.00 0.00 60 1013.4
20260902052037 89 135 3.0 6.0 0.00 0.00 0.00 59 1013.4
20260902051017 89 135 4.0 9.0 0.00 0.00 0.00 58 1013.3
20260902050017 89 113 4.0 9.0 0.00 0.00 0.00 58 1013.3
20260902045015 88 113 2.0 9.0 0.00 0.00 0.00 59 1013.2
20260902044015 88 0.0 2.0 0.00 0.00 0.00 59 1013.2
20260902043035 89 0.0 1.0 0.00 0.00 0.00 58 1013.2
20260902042015 89 0.0 1.0 0.00 0.00 0.00 57 1013.0
20260902041015 90 113 1.0 3.0 0.00 0.00 0.00 56 1013.0
20260902040015 90 113 1.0 3.0 0.00 0.00 0.00 56 1013.0
20260902035015 90 135 2.0 6.0 0.00 0.00 0.00 56 1012.9
20260902034015 90 135 2.0 4.0 0.00 0.00 0.00 56 1012.9
20260902033015 90 135 1.0 3.0 0.00 0.00 0.00 55 1012.9
20260902032016 90 135 2.0 3.0 0.00 0.00 0.00 55 1012.9
20260902031015 90 135 1.0 4.0 0.00 0.00 0.00 55 1012.8
20260902030015 91 135 1.0 3.0 0.00 0.00 0.00 54 1012.5
20260902025015 91 135 1.0 3.0 0.00 0.00 0.00 54 1012.4
20260902024015 91 135 1.0 3.0 0.00 0.00 0.00 53 1012.3
20260902023015 91 135 1.0 3.0 0.00 0.00 0.00 53 1012.2
20260902022035 92 135 1.0 3.0 0.00 0.00 0.00 52 1012.0
20260902021055 92 113 2.0 3.0 0.00 0.00 0.00 52 1011.9
20260902020035 92 113 2.0 6.0 0.00 0.00 0.00 51 1011.9
20260902015015 92 113 2.0 7.0 0.00 0.00 0.00 51 1011.6
20260902014015 92 113 2.0 4.0 0.00 0.00 0.00 50 1011.5
20260902013015 93 135 2.0 6.0 0.00 0.00 0.00 50 1011.6
20260902012015 93 113 2.0 6.0 0.00 0.00 0.00 49 1011.2
20260902011016 94 113 2.0 6.0 0.00 0.00 0.00 48 1011.2
20260902010015 94 113 2.0 4.0 0.00 0.00 0.00 47 1011.2
20260902005015 95 113 2.0 3.0 0.00 0.00 0.00 47 1011.2
20260902004015 95 113 3.0 9.0 0.00 0.00 0.00 46 1011.3
20260902003015 96 113 3.0 8.0 0.00 0.00 0.00 46 1011.4
20260902002015 96 113 3.0 9.0 0.00 0.00 0.00 46 1011.4
20260902001035 96 135 3.0 9.0 0.00 0.00 0.00 45 1011.5
20260902000015 97 113 3.0 8.0 0.00 0.00 0.00 45 1011.5
20260901235015 97 113 4.0 8.0 0.00 0.00 0.00 44 1011.5
20260901234015 98 45 2.0 6.0 0.00 0.00 0.00 44 1011.5
20260901233016 98 113 4.0 9.0 0.00 0.00 0.00 44 1011.6
20260901232016 98 90 3.0 9.0 0.00 0.00 0.00 44 1011.8
20260901231015 98 113 3.0 8.0 0.00 0.00 0.00 43 1011.7
20260901230015 99 45 2.0 8.0 0.00 0.00 0.00 42 1011.6
20260901225015 99 68 3.0 8.0 0.00 0.00 0.00 41 1011.6
20260901224015 99 90 4.0 8.0 0.00 0.00 0.00 42 1011.7
20260901223015 99 90 3.0 9.0 0.00 0.00 0.00 41 1011.8
20260901222015 100 90 3.0 8.0 0.00 0.00 0.00 40 1011.8
20260901221035 100 90 3.0 6.0 0.00 0.00 0.00 40 1011.8
20260901220015 100 90 3.0 10.0 0.00 0.00 0.00 40 1011.9
20260901215015 100 90 3.0 8.0 0.00 0.00 0.00 41 1012.0
20260901214015 100 68 3.0 9.0 0.00 0.00 0.00 40 1012.2
20260901213015 101 113 3.0 8.0 0.00 0.00 0.00 40 1012.2
20260901212015 100 113 3.0 11.0 0.00 0.00 0.00 41 1012.3
20260901211015 101 113 3.0 7.0 0.00 0.00 0.00 41 1012.4
20260901210015 101 68 2.0 6.0 0.00 0.00 0.00 42 1012.6
20260901205015 100 90 2.0 6.0 0.00 0.00 0.00 43 1012.6
20260901204015 100 113 2.0 9.0 0.00 0.00 0.00 43 1012.8
20260901203015 100 68 3.0 11.0 0.00 0.00 0.00 43 1013.0
20260901202015 100 113 3.0 9.0 0.00 0.00 0.00 44 1013.0
20260901201015 101 113 3.0 10.0 0.00 0.00 0.00 42 1013.1
20260901200015 101 113 2.0 6.0 0.00 0.00 0.00 42 1013.3
20260901195015 101 45 2.0 7.0 0.00 0.00 0.00 42 1013.3
20260901194015 101 90 4.0 10.0 0.00 0.00 0.00 42 1013.3
20260901193015 101 45 3.0 7.0 0.00 0.00 0.00 43 1013.5
20260901192015 101 68 3.0 11.0 0.00 0.00 0.00 43 1013.6
20260901191015 101 180 4.0 9.0 0.00 0.00 0.00 43 1013.8
20260901190015 101 113 3.0 9.0 0.00 0.00 0.00 44 1013.9
20260901185035 100 113 4.0 9.0 0.00 0.00 0.00 45 1014.1
20260901184015 99 113 4.0 11.0 0.00 0.00 0.00 46 1014.1
20260901183035 99 113 3.0 7.0 0.00 0.00 0.00 46 1014.5
20260901182015 99 68 2.0 6.0 0.00 0.00 0.00 47 1014.7
20260901181015 100 113 2.0 8.0 0.00 0.00 0.00 46 1014.6
20260901180015 100 68 3.0 8.0 0.00 0.00 0.00 45 1014.6
20260901175015 99 113 2.0 4.0 0.00 0.00 0.00 47 1015.0
20260901174017 100 90 3.0 7.0 0.00 0.00 0.00 46 1015.0
20260901173017 99 158 3.0 7.0 0.00 0.00 0.00 47 1015.2
20260901172017 99 113 2.0 6.0 0.00 0.00 0.00 46 1015.4
20260901171037 99 158 3.0 9.0 0.00 0.00 0.00 46 1015.6
20260901170017 99 135 3.0 10.0 0.00 0.00 0.00 47 1015.7
20260901165017 99 180 3.0 9.0 0.00 0.00 0.00 47 1015.8
20260901164017 99 158 3.0 7.0 0.00 0.00 0.00 48 1015.9
20260901163017 99 158 2.0 6.0 0.00 0.00 0.00 48 1015.9
20260901162017 99 180 2.0 6.0 0.00 0.00 0.00 49 1015.9
20260901161017 98 135 3.0 6.0 0.00 0.00 0.00 50 1015.9
20260901160017 97 158 3.0 6.0 0.00 0.00 0.00 50 1016.0
20260901155017 96 135 2.0 6.0 0.00 0.00 0.00 51 1015.9
20260901154017 96 180 3.0 9.0 0.00 0.00 0.00 52 1015.9
20260901153018 95 180 2.0 5.0 0.00 0.00 0.00 54 1015.8
20260901152017 94 180 2.0 5.0 0.00 0.00 0.00 55 1015.7
20260901151037 94 158 2.0 6.0 0.00 0.00 0.00 56 1015.9
20260901150017 93 135 2.0 4.0 0.00 0.00 0.00 58 1015.9
20260901145017 92 203 3.0 6.0 0.00 0.00 0.00 59 1015.9
20260901144017 91 158 2.0 4.0 0.00 0.00 0.00 60 1015.9
20260901143057 90 113 2.0 4.0 0.00 0.00 0.00 62 1016.0
20260901142017 89 113 2.0 6.0 0.00 0.00 0.00 62 1016.0
20260901141037 89 113 2.0 6.0 0.00 0.00 0.00 64 1016.1
20260901140037 88 135 2.0 6.0 0.00 0.00 0.00 65 1016.1
20260901135037 87 158 3.0 7.0 0.00 0.00 0.00 66 1016.0
20260901134037 85 135 2.0 5.0 0.00 0.00 0.00 68 1016.0
20260901133018 84 135 2.0 4.0 0.00 0.00 0.00 70 1015.8
20260901132017 83 135 2.0 4.0 0.00 0.00 0.00 71 1015.8
20260901131017 82 135 1.0 3.0 0.00 0.00 0.00 73 1015.7